Location: Black Swamp Observatory
(41.3920°N, 84.1250°W)
Time: 13:32:33
(UTC-04:00)

ISS - Visible Passes

Search period start: 23 July 2024 00:00
Search period end: 02 August 2024 00:00
Orbit: 409 x 423 km, 51.6° (Epoch: 23 July)

Date Brightness Start Highest point End Pass type
(mag) Time Alt. Az. Time Alt. Az. Time Alt. Az.
23 Jul -2.5 22:26:41 10° NW 22:29:45 34° NNE 22:31:40 18° E visible
24 Jul -1.3 00:03:29 10° WNW 00:04:32 17° W 00:04:32 17° W visible
24 Jul -2.0 21:38:13 10° NW 21:41:02 25° NNE 21:43:50 10° E visible
24 Jul -3.4 23:14:42 10° WNW 23:17:38 52° WSW 23:17:38 52° WSW visible
25 Jul -3.9 22:26:02 10° NW 22:29:21 82° NE 22:30:44 32° ESE visible
26 Jul -3.2 21:37:26 10° NW 21:40:39 49° NNE 21:43:52 10° ESE visible
26 Jul -1.8 23:14:40 10° W 23:16:44 19° WSW 23:16:44 19° WSW visible
27 Jul -2.7 22:25:34 10° WNW 22:28:35 34° SW 22:29:54 24° S visible
28 Jul -3.5 21:36:40 10° WNW 21:39:56 62° SW 21:43:05 11° SE visible
29 Jul -1.2 22:26:00 10° WSW 22:27:28 12° SW 22:28:57 10° SSW visible
30 Jul -1.8 21:36:15 10° W 21:38:52 22° SW 21:41:28 10° S visible
